Location: Park Creek Village Mobile Home Park
(38.2885°N, 122.4714°W)
Time: 19:16:57
(UTC+00:00)

Cosmos 1302 Rocket - Pass Details

Date: 14 December 2019
Orbit: 757 x 775 km, 74.0° (Epoch: 27 January)

Event Time Altitude Azimuth Distance (km) Brightness Sun altitude
Rises 14:12:55 0° 203° (SSW) 3,235 7.2 -12.6°
Reaches altitude 10° 14:15:18 10° 206° (SSW) 2,313 6.4 -12.1°
Maximum altitude 14:20:32 68° 289° (WNW) 832 4.0 -11.2°
Drops below altitude 10° 14:25:48 10° 13° (NNE) 2,330 6.4 -10.2°
Sets 14:28:13 0° 16° (NNE) 3,260 7.2 -9.8°
